カタログに戻る

STARLINK-11482

運用中通信VLEO
NORAD 62520·PAYLOAD·🇺🇸 United States

打ち上げ Jan 8, 2025 から Cape Canaveral Space Force Station

Loading…

次のパス (今後24時間)

TLE

最新Source: CelesTrak SupGP

元期: Sep 14, 2026, 21:11 UTC

1 62520C 25004K   26257.88312500  .00065641  00000+0  50955-3 0  2570
2 62520  43.0009  10.0021 0001790 264.7904 231.9845 15.70818972    17

AllMySatでSTARLINK-11482をリアルタイム追跡

Download on the App Store